Location: Pl�tzky
(52.0521°N, 11.8020°E)
Time: 14:37:03
(UTC+00:00)

COBE Rocket - Pass Details

Date: 22 November 2019
Orbit: 679 x 783 km, 97.1° (Epoch: 10 December)

Event Time Altitude Azimuth Distance (km) Brightness Sun altitude
Rises 16:53:25 0° 13° (NNE) 3,117 6.9 -15.0°
Reaches altitude 10° 16:55:43 10° 15° (NNE) 2,179 6.1 -15.3°
Maximum altitude 17:00:29 79° 102° (ESE) 711 3.7 -16.0°
Drops below altitude 10° 17:05:08 10° 190° (S) 2,122 6.6 -16.7°
Sets 17:07:21 0° 191° (S) 3,028 7.4 -17.0°
